Terminal Aerodrome Forecast
Issued by NWS

Home | Current Version | Previous Version | Text Only | Print | Product List | Glossary On
Versions: 1 2 3 4 5 6 7 8 9 10 11 12 13 14 15
000
FTUS46 KSEW 291120
TAFPAE
TAF
KPAE 291120Z 2912/3012 34006KT P6SM BKN007 OVC010
      TEMPO 2912/2914 3SM -RA BR OVC005
     FM291400 23005KT P6SM -SHRA SCT010 BKN030
     FM292000 27005KT P6SM VCSH SCT010 BKN050
     FM292300 33005KT P6SM SCT020 BKN050=

USA.gov is the U.S. government's official web portal to all federal, state and local government web resources and services.